User: anonymous   Login
Location: Voyageurs National Park
(48.5020°N, 92.9292°W)
Time: 21:09:59
(UTC-06:00)
Language:

Terra - Orbit

View from above orbital plane
View from above orbital plane
View from above satellite
View from above satellite

Ground track
Ground track

The orbit data is extracted from the following two-line orbital elements,

1 25994U 99068A   15061.84861487  .00000427  00000-0  10474-3 0  9992
2 25994 098.2213 137.8438 0001239 087.4082 272.7251 14.57137727808730
Epoch (UTC): 02 March 2015 20:22:00
Eccentricity: 0.0001239
inclination: 98.2213°
perigee height: 701 km
apogee height: 703 km
right ascension of ascending node: 137.8438°
argument of perigee: 87.4082°
revolutions per day: 14.57137727
mean anomaly at epoch: 272.7251°
orbit number at epoch: 80873

The dashed part of the orbit path shows where the satellite is in the earth's shadow,  

DLR